Flag for Germany Weather past 2 weeks in Gifhorn, Lower Saxony, Germany

Now
50 °F

Mostly cloudy.


Feels Like: 43 °F
Forecast: 49 / 50 °F
Wind: 24 mph from West

Location: Braunschweig

Current Time: Dec 22, 2014 at 1:07:09 PM

Latest Report: Dec 22, 2014 at 12:20 PM


Visibility: N/A

Pressure: 29.86 "Hg

Humidity: 88%

Dew point: 46 °F

Location of GifhornLocation

Historic Weather in Gifhorn — Graph

°F

Gifhorn temperature yesterday

Maximum temperature yesterday: 45 °F (at 2:20 PM)
Minimum temperature yesterday: 39 °F (at 7:50 AM)
Average temperature yesterday: 42 °F

Past Weeks' High & Low Weather Summary

 TemperatureHumidityPressure
High54 °F (Dec 18, 6:50 PM)100% (Dec 8, 6:50 AM)30.36 "Hg (Dec 8, 6:50 AM)
Low34 °F (Dec 9, 8:20 PM)65% (Dec 10, 6:50 AM)29.36 "Hg (Dec 12, 2:20 PM)
Average42 °F88%29.85 "Hg
* Reported Dec 7 11:20 AM — Dec 22 11:50 AM, Gifhorn, Weather by CustomWeather, © 2014

Note: Actual official high and low records may vary slightly from our data, if they occured in-between our weather recording intervals... More about our weather records

Advertising

Gifhorn weather history for previous 24 hours

 ConditionsComfort  
Time TempWeatherWind HumidityBarometerVisibility
11:50 AM
Dec 22
50 °FOvercast.26 mph88%29.86 "HgN/A
11:20 AM50 °FOvercast.25 mph88%29.83 "HgN/A
10:50 AM50 °FPartly sunny.28 mph88%29.86 "HgN/A
10:20 AM50 °FOvercast.24 mph88%29.86 "HgN/A
9:50 AM48 °FDrizzle. Mostly cloudy.22 mph100%29.89 "Hg6 mi
9:20 AM48 °FRain. Mostly cloudy.22 mph100%29.89 "Hg4 mi
8:50 AM48 °FMostly cloudy.23 mph94%29.89 "HgN/A
8:20 AM48 °FOvercast.24 mph94%29.89 "HgN/A
7:50 AM48 °FDrizzle. Overcast.24 mph94%29.89 "HgN/A
7:20 AM48 °FDrizzle. Overcast.22 mph94%29.89 "HgN/A
6:50 AM48 °FDrizzle. Overcast.22 mph94%29.89 "HgN/A
5:20 PM
Dec 21
43 °FPartly cloudy.16 mph87%30.15 "HgN/A
4:50 PM45 °FPartly cloudy.16 mph81%30.15 "HgN/A
4:20 PM43 °FPartly cloudy.16 mph87%30.18 "HgN/A
3:50 PM45 °FBroken clouds.16 mph81%30.15 "HgN/A
3:20 PM45 °FBroken clouds.17 mph81%30.18 "HgN/A
2:50 PM45 °FDrizzle. Broken clouds.16 mph81%30.21 "HgN/A
2:20 PM45 °FPartly sunny.16 mph81%30.21 "HgN/A
1:50 PM43 °FBroken clouds.14 mph93%30.21 "HgN/A
1:20 PM43 °FPartly sunny.14 mph87%30.24 "HgN/A
Weather by CustomWeather, © 2014

See weather overviewHow to use our weather pages